SCP
1 1 1 1 1 0 0 0 0 0 0 0 0 0 0 0 0 0 0 1 1 1 1 1 1 1 1 1 1 1 1 1 1 1 1 1 1 1 1 1 1 1 1 1 1 1 1 1 1
1 1 1 1 0 0 0 0 0 0 0 0 0 0 0 0 0 1 1 1 1 1 1 1 1 1 1 1 1 0 0 0 1 1 1 1 1 1 1 1 1 1 1 1 1 1 1 1 1
1 1 1 0 0 0 0 0 0 0 0 0 0 0 0 0 1 1 1 1 1 1 1 1 1 1 1 1 0 0 0 0 0 1 1 1 1 1 1 1 1 1 1 1 1 1 1 1 1
1 1 0 0 0 0 0 0 0 0 0 0 0 0 0 1 1 1 2 1 1 1 1 1 2 1 1 1 0 0 0 0 0 0 1 1 1 1 1 1 1 1 1 1 1 1 1 1 1
1 1 0 0 0 1 0 0 0 0 0 0 0 1 1 1 1 2 2 1 1 1 1 2 2 2 1 1 1 0 1 0 0 0 0 0 1 1 1 1 1 1 1 1 1 1 1 1 1
1 1 0 0 0 0 0 0 0 0 0 0 1 1 1 1 2 2 2 2 2 1 1 1 2 2 1 1 1 1 1 0 0 0 0 0 0 1 0 1 1 1 1 1 1 1 1 1 1
1 1 0 0 0 0 0 0 0 0 0 0 0 1 1 2 2 2 2 2 2 1 1 1 1 1 1 1 1 1 1 1 0 0 0 0 0 0 0 0 0 1 1 1 1 1 1 1 1
1 1 0 0 0 0 0 0 0 0 0 0 0 1 2 2 2 2 2 2 1 1 1 1 1 0 1 1 1 1 1 1 0 0 0 0 0 0 0 0 0 0 0 1 1 1 1 1 1
1 1 0 0 0 0 0 0 0 0 0 0 1 1 2 3 3 2 2 2 1 1 1 1 0 0 0 0 0 1 1 0 0 0 0 0 0 0 0 1 1 0 0 0 1 1 1 1 1
1 1 1 1 1 0 0 0 0 0 0 1 1 2 2 3 3 3 3 2 1 1 1 0 0 0 0 0 0 0 0 0 0 0 0 0 0 0 1 1 1 1 0 1 1 1 1 1 1
1 1 1 1 1 0 0 0 0 0 1 1 1 2 2 3 3 3 2 2 1 1 1 0 0 0 0 0 0 0 0 0 0 0 0 0 0 1 1 1 1 1 1 1 1 1 1 1 1
1 1 1 1 1 0 0 0 0 1 1 1 1 2 2 3 3 3 2 1 1 1 1 0 0 0 0 0 0 0 0 0 0 0 0 0 0 1 1 1 1 1 0 1 1 1 1 1 1
1 1 1 1 1 1 0 0 1 1 1 1 1 1 2 2 3 3 2 1 1 1 1 0 0 0 0 0 0 0 0 0 0 0 0 0 0 1 1 1 1 0 0 0 1 1 1 1 1
1 1 1 1 1 1 1 0 1 1 1 1 1 1 1 2 3 2 2 1 1 1 1 0 0 0 0 0 0 0 0 0 0 0 0 0 0 1 1 1 0 0 0 0 0 1 1 1 1
1 1 1 1 1 1 1 1 1 1 1 1 1 1 1 2 2 2 1 1 1 1 1 0 0 0 0 0 0 0 0 0 0 0 0 0 0 1 1 0 0 0 0 0 0 0 1 1 1
1 1 1 1 1 1 1 1 1 1 1 1 1 1 1 1 1 1 1 1 1 1 1 0 0 0 0 0 0 0 0 0 0 0 0 0 0 0 0 0 0 0 0 0 0 0 0 1 1
1 1 0 0 1 1 1 1 1 1 1 1 1 1 1 1 1 1 1 1 1 1 1 0 0 0 0 0 0 0 0 0 0 0 0 0 0 0 0 0 0 0 0 0 0 0 0 1 1
1 0 0 0 1 1 1 0 1 1 1 1 1 1 1 1 1 1 2 1 1 1 0 0 0 0 0 0 0 0 0 0 0 0 0 0 0 0 0 0 0 0 0 0 0 0 0 1 1
0 0 0 0 1 1 0 0 1 1 1 1 1 1 1 1 2 2 1 1 1 0 0 1 0 0 0 0 0 0 0 0 0 0 0 0 0 0 0 0 0 0 0 0 0 0 0 1 1
0 0 0 0 1 1 0 0 1 1 1 1 0 1 1 1 1 1 1 1 1 1 1 1 0 0 0 0 0 0 0 0 0 0 0 0 0 0 0 0 0 0 0 0 0 0 1 1 1
0 0 0 0 0 0 0 0 0 1 1 1 0 1 1 1 1 1 1 1 1 1 1 1 0 0 0 0 0 0 0 0 0 0 0 0 0 0 0 0 0 0 0 0 0 0 1 1 1
0 0 0 0 0 0 0 0 0 1 1 1 1 1 1 1 1 1 1 1 1 1 1 1 0 0 0 0 0 0 0 0 0 0 0 0 0 0 0 0 0 0 0 0 0 0 0 1 1
0 0 0 0 0 0 0 0 0 1 1 1 1 1 1 1 1 1 1 1 1 1 1 0 0 0 0 0 0 0 0 0 0 0 0 0 0 0 0 0 0 0 0 0 0 0 0 1 1
0 0 0 0 0 0 0 0 0 0 0 1 1 1 1 1 1 1 1 1 1 1 0 0 0 0 0 0 0 0 0 0 0 0 0 0 0 0 0 0 0 0 0 0 0 0 0 0 1
0 0 0 0 0 0 0 0 0 0 0 0 1 1 1 1 1 1 1 1 1 1 0 0 0 0 0 0 0 0 0 0 0 0 0 0 0 0 0 0 0 0 0 0 0 0 0 0 0
0 0 0 0 0 0 0 0 0 0 0 0 0 0 0 0 0 1 1 1 1 1 1 1 0 0 0 0 0 0 0 0 0 0 0 0 0 0 0 0 0 0 0 0 0 0 0 0 0
0 0 0 0 0 0 0 0 0 0 0 0 0 0 0 0 0 1 1 1 1 1 1 1 0 0 0 0 0 0 0 0 0 0 0 0 0 0 0 0 0 0 0 0 0 0 0 0 0
0 0 0 0 0 0 0 0 0 0 0 0 0 0 0 0 0 0 1 1 1 1 1 1 0 0 0 0 0 0 0 0 0 0 0 0 0 0 0 0 0 0 0 0 0 0 0 0 0
0 0 0 0 0 0 0 0 0 0 0 0 0 0 0 0 0 0 0 0 1 1 1 1 0 0 0 0 0 0 0 0 0 0 0 0 0 0 0 0 0 0 0 0 0 0 0 0 0
0 0 0 0 0 0 0 0 0 0 0 0 0 0 0 0 0 0 0 0 0 1 1 1 1 0 0 0 0 0 0 0 0 0 0 0 0 0 0 0 0 0 0 0 0 0 0 0 0
Wind_Speed
7 8 6 2 3 4 1 2 3 4 5 7 7 6 10 11 8 7 3 6 10 12 12 11 10 9 8 8 7 6 5 5 4 4 3 3 4 4 4 5 5 5 5 5 5 5 4 4 4
7 6 4 3 3 2 1 3 4 6 6 4 4 7 10 11 11 9 4 6 10 12 11 10 10 9 8 7 6 6 5 4 4 4 4 3 3 4 4 5 5 5 5 5 5 5 5 4 3
9 6 4 3 3 1 2 3 3 5 5 4 5 8 8 8 9 7 6 8 10 11 11 11 10 8 7 6 5 5 5 4 4 4 3 3 4 4 4 5 5 6 6 5 5 4 5 4 4
5 3 4 5 5 1 2 3 3 3 3 4 5 7 9 8 7 9 8 9 10 11 12 11 10 8 7 6 5 4 4 4 3 3 4 4 4 4 4 4 5 5 5 5 5 4 4 4 4
3 3 5 5 2 2 3 3 2 2 4 5 7 8 9 11 11 10 7 8 9 10 11 12 11 9 7 6 5 4 4 4 4 4 4 4 4 4 4 4 4 5 6 6 5 4 4 4 4
2 4 5 4 2 2 2 2 3 3 4 4 6 8 9 10 9 8 7 6 8 9 10 11 12 11 9 7 5 4 4 3 3 3 3 3 3 4 4 4 4 4 5 5 5 4 5 5 4
3 4 6 5 1 1 2 3 3 3 4 5 4 6 9 10 8 7 7 6 7 7 7 9 10 10 10 8 7 5 3 1 1 1 2 3 5 6 6 5 4 4 5 5 5 5 5 6 5
3 4 7 5 1 1 3 2 2 3 3 4 2 5 8 11 9 8 7 7 6 6 5 6 7 7 7 7 8 7 5 3 3 4 4 6 8 9 9 6 4 4 5 6 6 6 6 7 7
4 4 5 4 2 1 1 1 1 1 2 2 4 8 11 13 10 8 6 5 5 5 4 4 4 4 4 5 7 6 7 6 6 6 7 6 5 4 4 4 4 6 6 7 7 7 7 8 8
4 4 6 4 2 1 0 1 2 2 1 2 5 10 12 11 9 8 6 6 5 4 3 4 4 4 3 2 4 2 2 3 4 1 2 2 2 3 3 2 6 6 8 8 9 9 8 7 4
7 7 6 5 3 2 2 2 3 3 1 2 6 10 12 10 8 7 6 5 5 5 3 3 3 3 3 3 2 0 0 1 1 2 2 1 2 2 2 0 2 4 6 4 5 5 4 4 2
10 10 9 5 3 4 4 4 3 3 2 1 5 9 11 9 9 8 6 5 5 6 4 3 2 2 2 3 1 0 1 1 1 2 4 2 1 2 2 1 1 1 1 2 2 2 3 3 2
12 10 9 7 5 6 5 6 4 3 3 3 6 8 9 9 8 7 6 5 5 6 6 4 2 2 2 3 1 1 2 2 2 2 2 2 1 2 2 2 1 2 2 2 2 3 3 2 3
9 7 8 9 7 6 7 7 5 4 5 5 7 8 8 7 6 5 6 5 5 6 6 5 2 2 2 3 2 2 1 1 1 2 2 2 1 2 2 2 2 2 2 2 2 3 3 2 1
10 9 8 7 8 7 5 6 6 5 4 6 7 8 7 6 6 5 6 5 5 6 7 6 3 2 3 3 3 2 1 2 2 1 3 3 2 2 2 2 3 2 2 2 2 3 3 2 2
10 9 7 6 7 6 5 6 4 4 5 5 6 7 7 6 6 5 6 5 5 6 6 6 4 3 3 4 2 2 2 2 1 1 2 4 4 4 2 2 3 3 2 2 2 2 2 2 2
9 8 7 7 8 6 6 5 4 5 6 6 6 7 8 7 6 6 6 5 5 6 6 6 5 3 4 2 0 1 2 2 1 2 2 3 4 4 3 2 3 3 2 2 3 2 1 2 2
6 7 7 6 5 5 7 6 4 5 6 6 6 7 9 9 7 7 6 6 5 6 5 6 6 4 3 2 1 2 2 2 1 1 2 3 3 4 3 3 3 3 2 2 2 3 2 2 2
7 8 8 6 4 5 7 7 6 7 7 7 7 7 8 10 10 8 7 6 6 6 5 6 4 4 3 2 1 1 1 2 1 1 3 3 3 3 3 3 3 2 2 3 3 2 3 2 2
9 9 8 5 3 5 7 9 6 6 6 6 6 5 7 8 10 9 8 6 5 6 5 5 4 4 4 2 1 0 0 1 0 1 1 2 2 2 3 3 2 2 2 3 3 2 1 2 1
9 9 6 5 4 7 9 8 5 5 5 5 5 3 6 8 9 10 8 7 6 6 5 4 4 5 4 2 1 1 1 1 1 1 1 1 2 1 1 3 3 3 2 2 2 2 1 2 2
7 6 5 6 5 5 7 5 3 6 6 7 6 5 5 7 8 9 8 7 6 6 5 5 4 4 4 2 2 1 1 1 1 1 1 2 1 1 1 2 2 2 2 2 2 2 1 1 2
4 5 6 8 7 8 8 6 3 7 7 7 7 7 7 7 7 9 8 7 6 6 5 4 4 4 3 2 3 1 1 1 1 1 1 2 1 1 0 1 1 2 1 2 2 2 2 1 1
4 6 8 9 7 7 7 5 1 2 6 7 9 8 8 7 7 8 8 7 5 6 5 4 4 4 3 1 2 2 1 0 1 2 2 2 1 1 1 1 1 1 1 1 2 2 2 1 1
5 4 2 3 3 4 3 3 2 4 4 6 8 9 9 8 7 8 9 7 6 6 5 4 4 3 2 1 0 1 2 0 1 1 1 2 2 1 2 2 2 2 1 1 1 2 2 2 2
4 4 1 1 3 3 3 2 5 7 5 5 6 7 7 7 7 8 8 7 7 7 6 5 5 4 3 2 0 1 1 0 0 1 1 1 1 1 2 2 2 2 2 2 1 1 2 2 2
3 3 3 3 6 4 3 3 8 8 7 5 7 7 6 7 7 8 8 8 7 7 6 5 5 4 3 3 2 1 1 1 1 1 2 1 2 2 2 2 2 1 1 1 1 1 2 1 2
4 3 3 3 2 3 3 1 3 7 7 7 7 8 8 7 8 8 8 8 7 7 6 5 5 5 4 3 2 2 1 1 1 1 2 2 2 2 2 2 2 1 1 1 1 1 1 1 1
6 5 5 3 3 2 2 2 4 4 4 4 6 7 8 8 8 8 7 7 7 7 7 6 6 4 3 2 2 2 1 1 1 1 1 1 2 2 2 2 2 1 1 1 1 1 1 1 1
4 4 4 3 4 4 3 1 2 4 4 3 3 4 6 7 7 7 8 8 7 7 7 6 6 5 4 3 2 3 2 1 1 1 1 1 1 2 2 2 2 2 2 2 1 1 1 1 1
Wind_Direction
216 229 230 242 249 236 302 63 52 45 42 36 32 43 62 54 50 86 145 121 113 113 116 110 102 95 90 87 81 77 70 65 57 49 45 32 14 3 1 354 343 336 331 330 334 333 329 334 340
235 227 236 240 255 270 69 70 53 54 58 33 40 53 72 69 76 98 120 110 115 112 109 108 107 100 94 89 82 74 67 59 53 48 46 36 19 7 358 350 340 331 324 319 321 325 323 323 319
243 241 249 240 258 333 61 79 70 63 56 38 49 59 59 70 80 104 124 123 111 108 108 110 111 104 99 93 87 77 67 58 48 41 33 26 16 6 356 347 337 332 325 320 318 320 322 319 314
229 234 246 249 272 15 74 92 81 75 70 56 55 72 74 71 87 111 124 121 112 111 112 118 118 111 104 97 90 81 68 54 42 34 20 11 2 355 349 336 329 326 318 311 313 317 313 315 308
233 249 256 258 280 34 61 62 67 67 65 57 73 84 91 89 101 114 119 116 116 118 122 130 128 124 118 107 93 79 67 51 33 23 17 3 348 333 330 324 320 319 312 307 309 308 303 301 299
257 258 269 286 336 54 75 45 17 39 77 81 98 104 105 120 122 126 123 126 121 123 127 132 142 142 138 130 115 92 73 57 39 20 7 346 329 311 294 296 299 307 313 311 303 299 295 285 286
256 275 277 294 338 51 58 25 13 21 48 54 72 106 124 130 130 137 137 129 120 122 127 142 151 156 152 144 135 122 110 93 46 327 309 295 281 273 265 263 277 298 309 308 300 293 288 278 271
254 280 288 304 320 49 42 8 5 12 56 61 36 97 127 134 147 146 143 138 135 133 139 142 149 150 152 153 151 156 165 179 216 237 250 265 270 263 250 244 241 267 285 289 287 280 277 269 258
260 264 286 305 328 46 98 311 360 13 87 89 72 93 126 140 150 149 151 147 138 143 145 134 123 118 134 149 151 173 184 197 224 233 234 253 265 266 234 208 207 240 260 266 266 268 264 262 253
216 257 272 282 325 4 344 303 291 254 184 146 111 115 131 148 155 161 164 154 146 145 130 113 112 115 109 98 128 179 173 181 228 240 198 244 301 325 321 177 220 238 249 255 251 254 260 256 245
231 249 271 287 302 284 269 253 243 255 240 185 144 141 145 157 164 173 170 158 147 130 106 101 104 110 117 110 106 134 144 151 252 4 7 356 347 327 313 242 221 235 242 246 244 242 246 241 235
240 258 269 276 282 275 274 264 241 253 256 189 142 147 157 172 175 180 172 149 141 126 120 100 88 103 99 99 88 163 68 43 21 34 8 0 1 329 319 320 330 304 276 262 262 245 253 250 247
238 249 270 265 258 261 258 254 252 237 202 175 148 158 168 178 179 175 158 143 141 134 132 112 80 60 63 90 63 60 69 34 13 54 346 346 5 331 334 323 330 314 314 305 295 284 274 255 238
251 256 258 263 254 254 254 259 236 226 182 179 168 172 174 171 175 166 154 152 148 133 127 118 113 69 46 57 45 37 46 81 21 37 332 347 7 337 323 320 321 302 292 294 293 287 289 269 247
264 261 252 252 258 248 253 264 247 235 190 186 184 174 161 163 169 171 150 148 139 129 125 122 125 92 61 55 38 18 12 43 27 18 346 346 359 339 347 339 328 310 304 316 314 311 315 298 277
256 252 255 253 248 241 231 254 231 198 201 200 184 165 156 163 171 160 143 139 128 121 122 119 109 91 75 62 33 3 18 38 7 15 7 346 355 360 359 342 320 312 325 318 300 290 299 297 281
256 257 260 258 241 241 233 258 207 179 208 205 190 171 163 164 171 152 138 133 122 121 122 121 113 99 83 73 74 27 17 23 5 14 18 354 350 352 350 326 309 318 332 325 313 325 307 295 292
256 262 262 265 242 250 251 253 229 204 212 214 193 183 172 166 166 145 133 128 129 126 126 119 117 100 86 79 29 47 33 5 358 12 22 5 349 350 344 325 327 336 335 323 314 313 296 276 270
268 280 278 264 229 249 264 265 230 199 200 208 203 193 172 159 154 141 135 139 137 128 121 112 114 107 95 65 36 32 22 338 346 6 22 9 355 350 339 333 330 332 324 310 310 306 306 296 282
255 265 275 284 262 261 266 266 248 196 193 210 214 195 161 150 147 138 142 146 142 129 118 119 118 110 99 91 48 100 45 295 9 7 14 358 351 352 342 341 325 318 310 306 310 310 299 291 292
258 265 277 284 282 275 271 258 226 205 182 193 212 182 149 154 151 144 148 143 139 132 128 127 116 113 105 109 70 12 13 320 354 357 25 335 327 3 352 331 324 315 306 301 300 290 276 274 290
254 275 282 276 273 273 266 274 211 171 175 190 186 165 149 138 139 139 146 143 141 134 133 132 125 119 122 133 111 13 3 1 356 357 1 320 341 23 4 322 316 309 306 311 303 314 302 283 288
266 289 284 277 272 271 261 264 188 166 178 186 171 155 142 140 142 140 143 141 143 137 132 133 128 125 124 131 136 177 37 2 342 350 348 334 344 333 315 302 299 293 298 308 313 323 326 288 267
269 273 267 259 259 263 258 258 191 176 165 161 150 144 142 143 140 138 135 133 132 126 129 134 131 127 125 151 168 157 113 328 338 344 348 327 315 329 356 356 314 308 334 329 319 312 314 301 288
240 264 303 289 246 257 257 239 137 102 98 133 140 143 143 142 140 139 138 139 136 138 144 148 139 135 136 162 229 125 122 355 11 344 330 323 329 348 1 4 336 340 345 322 310 312 312 305 301
235 239 214 295 306 310 264 209 111 117 102 107 115 118 129 139 140 144 144 146 149 153 157 163 151 150 155 168 208 36 94 115 23 309 331 338 341 4 4 343 332 340 350 343 318 296 291 293 295
230 230 222 239 272 276 255 144 123 126 130 139 138 134 148 152 150 153 151 152 156 160 164 169 155 157 164 172 170 125 33 49 19 355 357 352 342 357 5 344 348 356 359 355 338 313 304 319 309
267 281 265 256 299 303 317 351 127 146 153 162 162 161 165 161 159 159 157 158 160 160 163 165 160 162 168 174 172 132 116 73 44 6 353 350 350 3 347 336 336 347 350 329 343 335 324 317 298
212 237 251 276 279 295 336 3 80 119 131 158 171 165 160 159 161 161 158 158 161 162 166 168 166 162 160 165 148 125 137 117 67 29 352 351 354 347 330 326 331 346 6 354 10 352 346 333 328
264 265 270 284 305 304 303 351 107 119 129 142 144 143 150 155 159 158 155 155 162 167 168 167 166 162 160 158 147 138 138 113 60 11 355 352 353 345 332 344 357 16 17 5 7 339 360 348 353